Погода в Узене

Россия / Томская область     57°17′56″N   86°12′20″E
темп.,
°C
ветер,
м/с
пор.,
м/с
влажн.,
%
обл.,
%
осадки,
мм/ч
давл.,
гПа
погр.,
м
29 ноября, пн
пн2901:00−5зюз51192100 0.2 1031469
04:00−7зюз41093100 0.1 1032361
07:00−8ююз3895100 0.1 1032256
10:00−9ююз4995100 0.1 1032354
13:00−8ююз41093100 0.1 1031432
16:00−7ююз41193100 0.1 1030466
19:00−8ююз51291100 0.1 1029427
22:00−8ююз41389100 0.0 1027424
30 ноября, вт
вт3001:00−8ююз5138499 0.0 1026434
04:00−8ююз4128173 0.0 1025417
07:00−9ююз51379100 0.0 1024371
10:00−9юз51380100 0.0 1023396
13:00−7юз51380100 0.0 1022497
16:00−6юз5137999 0.0 1022499
19:00−8юз5138277 0.0 1022375
22:00−7юз51383100 0.0 1023451
1 декабря, ср
ср101:00−7зюз41091100 0.1 1024364
04:00−8юз3994100 0.0 1024267
07:00−7ююз3894100 0.1 1025267
10:00−8ююз3790100 0.1 1026256
13:00−10ю4986100 0.1 1025252
16:00−9ю3886100 0.0 1024259
19:00−8ююз51385100 0.0 1022410
22:00−7ююз51484100 0.0 1021470
2 декабря, чт
чт201:00−5юз51583100 0.0 1020505
04:00−5юз41384100 0.0 1020415
07:00−5юз41284100 0.0 1020419
10:00−5ююз51484100 0.0 1019437
13:00−4ююз51382100 0.0 1018486
16:00−4ююз41282100 0.0 1017417
19:00−5ююз51384100 0.0 1017393
22:00−6ю41385100 0.0 1015323
3 декабря, пт
пт301:00−5ю51484100 0.0 1014346
04:00−4ю51483100 0.0 1011415
07:00−3ю51581100 0.0 1008429
10:00−1ю51578100 0.0 1006506
13:00+1ююз71774100 0.0 1003745
16:00+1ююз81682100 0.0 1000967
19:000юз81896100 1.1 10001243
22:000зюз81684100 0.3 10051228